| time (UTC) | temp F | wind direction | speed MPH | gust MPH | rain 1hr in | rain 24hr in | rain mn in | humidity % | barometer mb |
| 20260504232753 | 76 | 180 | 1.0 | 7.0 | 0.00 | 0.00 | 0.00 | 1003.8 | |
| 20260504232252 | 76 | 217 | 0.0 | 4.0 | 0.00 | 0.00 | 0.00 | 1003.6 | |
| 20260504231752 | 76 | 177 | 0.0 | 2.0 | 0.00 | 0.00 | 0.00 | 1003.6 | |
| 20260504231252 | 77 | 215 | 1.0 | 6.0 | 0.00 | 0.00 | 0.00 | 1003.7 | |
| 20260504230752 | 77 | 180 | 0.0 | 3.0 | 0.00 | 0.00 | 0.00 | 1003.7 | |
| 20260504230251 | 77 | 215 | 0.0 | 4.0 | 0.00 | 0.00 | 0.00 | 1003.6 | |
| 20260504225751 | 76 | 183 | 0.0 | 2.0 | 0.00 | 0.00 | 0.00 | 1004.0 | |
| 20260504225251 | 76 | 0 | 0.0 | 0.0 | 0.00 | 0.00 | 0.00 | 1004.0 | |
| 20260504224751 | 76 | 0 | 0.0 | 0.0 | 0.00 | 0.00 | 0.00 | 1004.4 | |
| 20260504224251 | 76 | 239 | 0.0 | 2.0 | 0.00 | 0.00 | 0.00 | 1004.2 | |
| 20260504223750 | 81 | 263 | 1.0 | 3.0 | 0.00 | 0.00 | 0.00 | 1004.1 | |
| 20260504223250 | 83 | 259 | 1.0 | 3.0 | 0.00 | 0.00 | 0.00 | 1004.2 | |
| 20260504222750 | 82 | 170 | 1.0 | 4.0 | 0.00 | 0.00 | 0.00 | 1004.4 | |
| 20260504222250 | 81 | 245 | 1.0 | 5.0 | 0.00 | 0.00 | 0.00 | 1004.1 | |
| 20260504221749 | 87 | 194 | 1.0 | 3.0 | 0.00 | 0.00 | 0.00 | 1004.5 | |
| 20260504221249 | 80 | 277 | 1.0 | 3.0 | 0.00 | 0.00 | 0.00 | 1004.6 | |
| 20260504220749 | 79 | 250 | 0.0 | 2.0 | 0.00 | 0.00 | 0.00 | 1004.5 | |
| 20260504220249 | 82 | 177 | 0.0 | 4.0 | 0.00 | 0.00 | 0.00 | 1004.0 | |
| 20260504215248 | 75 | 240 | 1.0 | 6.0 | 0.00 | 0.00 | 0.00 | 1004.6 | |
| 20260504214748 | 76 | 276 | 1.0 | 3.0 | 0.00 | 0.00 | 0.00 | 1004.7 | |
| 20260504214248 | 76 | 269 | 0.0 | 3.0 | 0.00 | 0.00 | 0.00 | 1005.0 | |
| 20260504213748 | 76 | 253 | 2.0 | 6.0 | 0.00 | 0.00 | 0.00 | 1005.1 | |
| 20260504213248 | 78 | 231 | 2.0 | 6.0 | 0.00 | 0.00 | 0.00 | 1004.9 | |
| 20260504212747 | 79 | 243 | 2.0 | 6.0 | 0.00 | 0.00 | 0.00 | 1004.6 | |
| 20260504212247 | 79 | 248 | 1.0 | 5.0 | 0.00 | 0.00 | 0.00 | 1005.3 | |
| 20260504211747 | 80 | 242 | 1.0 | 6.0 | 0.00 | 0.00 | 0.00 | 1004.9 | |
| 20260504211246 | 77 | 257 | 2.0 | 7.0 | 0.00 | 0.00 | 0.00 | 1005.4 | |
| 20260504210746 | 76 | 276 | 2.0 | 7.0 | 0.00 | 0.00 | 0.00 | 1005.2 | |
| 20260504210246 | 78 | 278 | 2.0 | 7.0 | 0.00 | 0.00 | 0.00 | 1005.5 | |
| 20260504205746 | 81 | 207 | 1.0 | 6.0 | 0.00 | 0.00 | 0.00 | 1005.4 | |
| 20260504205245 | 77 | 242 | 1.0 | 5.0 | 0.00 | 0.00 | 0.00 | 1005.5 | |
| 20260504204745 | 78 | 302 | 0.0 | 3.0 | 0.00 | 0.00 | 0.00 | 1005.7 | |
| 20260504204245 | 77 | 236 | 1.0 | 6.0 | 0.00 | 0.00 | 0.00 | 1005.8 | |
| 20260504203745 | 76 | 263 | 1.0 | 6.0 | 0.00 | 0.00 | 0.00 | 1005.4 | |
| 20260504203244 | 78 | 256 | 1.0 | 4.0 | 0.00 | 0.00 | 0.00 | 1005.6 | |
| 20260504202744 | 83 | 239 | 2.0 | 5.0 | 0.00 | 0.00 | 0.00 | 1005.8 | |
| 20260504202244 | 85 | 273 | 1.0 | 5.0 | 0.00 | 0.00 | 0.00 | 1005.8 | |
| 20260504201744 | 82 | 245 | 0.0 | 2.0 | 0.00 | 0.00 | 0.00 | 1005.9 | |
| 20260504201244 | 77 | 236 | 1.0 | 4.0 | 0.00 | 0.00 | 0.00 | 1005.7 | |
| 20260504200743 | 75 | 260 | 1.0 | 4.0 | 0.00 | 0.00 | 0.00 | 1005.9 | |
| 20260504200243 | 74 | 200 | 1.0 | 5.0 | 0.00 | 0.00 | 0.00 | 1005.8 | |
| 20260504195743 | 73 | 191 | 1.0 | 4.0 | 0.00 | 0.00 | 0.00 | 1006.1 | |
| 20260504195243 | 73 | 226 | 0.0 | 1.0 | 0.00 | 0.00 | 0.00 | 1006.3 | |
| 20260504194742 | 70 | 226 | 0.0 | 3.0 | 0.00 | 0.00 | 0.00 | 1006.3 | |
| 20260504194242 | 69 | 236 | 1.0 | 4.0 | 0.00 | 0.00 | 0.00 | 1006.5 | |
| 20260504193742 | 68 | 236 | 0.0 | 1.0 | 0.00 | 0.00 | 0.00 | 1006.5 | |
| 20260504193242 | 67 | 274 | 1.0 | 4.0 | 0.00 | 0.00 | 0.00 | 1006.5 | |
| 20260504192743 | 67 | 269 | 0.0 | 3.0 | 0.00 | 0.00 | 0.00 | 1007.0 | |
| 20260504192240 | 67 | 260 | 1.0 | 4.0 | 0.00 | 0.00 | 0.00 | 1007.0 | |
| 20260504191239 | 65 | 240 | 0.0 | 2.0 | 0.00 | 0.00 | 0.00 | 1006.9 | |
| 20260504190737 | 68 | 287 | 2.0 | 6.0 | 0.00 | 0.00 | 0.00 | 1007.1 | |
| 20260504190237 | 69 | 256 | 1.0 | 4.0 | 0.00 | 0.00 | 0.00 | 1007.7 | |
| 20260504185737 | 70 | 250 | 1.0 | 9.0 | 0.00 | 0.00 | 0.00 | 1007.4 | |
| 20260504185237 | 70 | 250 | 1.0 | 8.0 | 0.00 | 0.00 | 0.00 | 1007.1 | |
| 20260504184736 | 70 | 252 | 2.0 | 6.0 | 0.00 | 0.00 | 0.00 | 1006.9 | |
| 20260504184236 | 71 | 250 | 3.0 | 9.0 | 0.00 | 0.00 | 0.00 | 1007.3 | |
| 20260504183736 | 72 | 208 | 2.0 | 5.0 | 0.00 | 0.00 | 0.00 | 1006.9 | |
| 20260504183236 | 73 | 274 | 2.0 | 6.0 | 0.00 | 0.00 | 0.00 | 1006.8 | |
| 20260504182736 | 72 | 122 | 2.0 | 7.0 | 0.00 | 0.00 | 0.00 | 1006.4 | |
| 20260504182235 | 73 | 249 | 3.0 | 9.0 | 0.00 | 0.00 | 0.00 | 1006.5 | |
| 20260504181735 | 77 | 256 | 3.0 | 11.0 | 0.00 | 0.00 | 0.00 | 1006.4 | |
| 20260504181235 | 83 | 218 | 2.0 | 6.0 | 0.00 | 0.00 | 0.00 | 1006.2 | |
| 20260504180735 | 82 | 184 | 2.0 | 10.0 | 0.00 | 0.00 | 0.00 | 1006.1 | |
| 20260504180234 | 79 | 300 | 2.0 | 5.0 | 0.00 | 0.00 | 0.00 | 1006.1 | |
| 20260504175734 | 82 | 264 | 1.0 | 5.0 | 0.00 | 0.00 | 0.00 | 1006.0 | |
| 20260504175234 | 78 | 219 | 2.0 | 10.0 | 0.00 | 0.00 | 0.00 | 1006.1 | |
| 20260504174734 | 80 | 245 | 1.0 | 6.0 | 0.00 | 0.00 | 0.00 | 1006.4 | |
| 20260504174233 | 81 | 184 | 1.0 | 7.0 | 0.00 | 0.00 | 0.00 | 1006.4 | |
| 20260504173733 | 80 | 179 | 1.0 | 7.0 | 0.00 | 0.00 | 0.00 | 1006.6 | |
| 20260504173233 | 77 | 226 | 1.0 | 4.0 | 0.00 | 0.00 | 0.00 | 1006.3 | |
| 20260504172733 | 74 | 210 | 2.0 | 5.0 | 0.00 | 0.00 | 0.00 | 1006.3 | |
| 20260504172232 | 75 | 207 | 1.0 | 6.0 | 0.00 | 0.00 | 0.00 | 1006.3 | |
| 20260504171732 | 76 | 193 | 1.0 | 4.0 | 0.00 | 0.00 | 0.00 | 1006.7 | |
| 20260504171232 | 74 | 198 | 1.0 | 8.0 | 0.00 | 0.00 | 0.00 | 1006.4 | |
| 20260504170732 | 72 | 242 | 1.0 | 4.0 | 0.00 | 0.00 | 0.00 | 1006.5 | |
| 20260504170232 | 72 | 219 | 1.0 | 3.0 | 0.00 | 0.00 | 0.00 | 1006.7 | |
| 20260504160229 | 75 | 245 | 1.0 | 5.0 | 0.00 | 0.00 | 0.00 | 1007.2 | |
| 20260504150725 | 74 | 225 | 1.0 | 3.0 | 0.00 | 0.00 | 0.00 | 1007.4 | |
| 20260504150225 | 73 | 219 | 2.0 | 6.0 | 0.00 | 0.00 | 0.00 | 1007.4 | |
| 20260504141219 | 71 | 214 | 2.0 | 10.0 | 0.00 | 0.00 | 0.00 | 1008.1 | |
| 20260504140718 | 72 | 203 | 2.0 | 7.0 | 0.00 | 0.00 | 0.00 | 1008.2 | |
| 20260504140218 | 71 | 149 | 1.0 | 4.0 | 0.00 | 0.00 | 0.00 | 1007.7 | |
| 20260504130712 | 61 | 255 | 1.0 | 3.0 | 0.00 | 0.00 | 0.00 | 1007.9 | |
| 20260504130211 | 60 | 204 | 1.0 | 4.0 | 0.00 | 0.00 | 0.00 | 1008.1 | |
| 20260504120204 | 54 | 0 | 0.0 | 0.0 | 0.00 | 0.00 | 0.00 | 1007.9 | |
| 20260504110656 | 50 | 142 | 0.0 | 1.0 | 0.00 | 0.00 | 0.00 | 1008.4 | |
| 20260504110156 | 50 | 179 | 0.0 | 2.0 | 0.00 | 0.00 | 0.00 | 1008.2 | |
| 20260504100149 | 49 | 0 | 0.0 | 0.0 | 0.00 | 0.00 | 0.00 | 1008.6 | |
| 20260504081637 | 51 | 193 | 0.0 | 3.0 | 0.00 | 0.00 | 0.00 | 1008.8 | |
| 20260504081136 | 51 | 226 | 0.0 | 2.0 | 0.00 | 0.00 | 0.00 | 1009.2 | |
| 20260504080636 | 51 | 198 | 0.0 | 2.0 | 0.00 | 0.00 | 0.00 | 1009.1 | |
| 20260504080136 | 51 | 236 | 0.0 | 1.0 | 0.00 | 0.00 | 0.00 | 1009.1 | |
| 20260504060121 | 50 | 0 | 0.0 | 0.0 | 0.00 | 0.00 | 0.00 | 1010.4 | |
| 20260504050613 | 52 | 0 | 0.0 | 0.0 | 0.00 | 0.00 | 0.00 | 1010.6 | |
| 20260504050113 | 52 | 270 | 0.0 | 3.0 | 0.00 | 0.00 | 0.00 | 1010.8 | |
| 20260504045612 | 52 | 201 | 0.0 | 1.0 | 0.00 | 0.00 | 0.00 | 1010.6 | |
| 20260504045112 | 53 | 214 | 0.0 | 4.0 | 0.00 | 0.00 | 0.00 | 1010.3 | |
| 20260504044611 | 53 | 0 | 0.0 | 0.0 | 0.00 | 0.00 | 0.00 | 1010.6 | |
| 20260504044111 | 53 | 0 | 0.0 | 0.0 | 0.00 | 0.00 | 0.00 | 1010.6 | |
| 20260504043611 | 53 | 0 | 0.0 | 0.0 | 0.00 | 0.00 | 0.00 | 1010.6 | |
| 20260504043111 | 54 | 218 | 0.0 | 3.0 | 0.00 | 0.00 | 0.00 | 1010.6 | |
| 20260504042611 | 54 | 243 | 0.0 | 2.0 | 0.00 | 0.00 | 0.00 | 1011.0 | |
| 20260504042110 | 54 | 193 | 0.0 | 2.0 | 0.00 | 0.00 | 0.00 | 1011.2 | |
| 20260504041610 | 54 | 222 | 0.0 | 3.0 | 0.00 | 0.00 | 0.00 | 1011.2 | |
| 20260504041110 | 54 | 243 | 0.0 | 3.0 | 0.00 | 0.00 | 0.00 | 1011.0 | |
| 20260504040610 | 54 | 232 | 0.0 | 3.0 | 0.00 | 0.00 | 0.00 | 1011.3 | |
| 20260504040109 | 55 | 205 | 0.0 | 2.0 | 0.00 | 0.00 | 0.00 | 1011.2 | |
| 20260504035609 | 55 | 215 | 0.0 | 2.0 | 0.00 | 0.00 | 0.00 | 1011.3 | |
| 20260504035109 | 55 | 107 | 0.0 | 1.0 | 0.00 | 0.00 | 0.00 | 1011.2 | |
| 20260504034607 | 55 | 166 | 0.0 | 3.0 | 0.00 | 0.00 | 0.00 | 1011.3 | |
| 20260504034105 | 55 | 256 | 0.0 | 3.0 | 0.00 | 0.00 | 0.00 | 1010.9 | |
| 20260504033605 | 56 | 0 | 0.0 | 0.0 | 0.00 | 0.00 | 0.00 | 1011.2 | |
| 20260504033105 | 56 | 0 | 0.0 | 0.0 | 0.00 | 0.00 | 0.00 | 1011.3 | |
| 20260504032604 | 56 | 200 | 0.0 | 3.0 | 0.00 | 0.00 | 0.00 | 1011.2 | |
| 20260504032104 | 56 | 218 | 0.0 | 1.0 | 0.00 | 0.00 | 0.00 | 1011.4 | |
| 20260504031604 | 56 | 0 | 0.0 | 0.0 | 0.00 | 0.00 | 0.00 | 1011.5 | |
| 20260504031104 | 56 | 172 | 0.0 | 1.0 | 0.00 | 0.00 | 0.00 | 1011.5 | |
| 20260504030603 | 56 | 0 | 0.0 | 0.0 | 0.00 | 0.00 | 0.00 | 1011.4 | |
| 20260504025559 | 56 | 270 | 0.0 | 2.0 | 0.00 | 0.00 | 0.00 | 1011.6 | |
| 20260504025058 | 56 | 197 | 0.0 | 2.0 | 0.00 | 0.00 | 0.00 | 1011.8 | |
| 20260504024558 | 56 | 181 | 0.0 | 2.0 | 0.00 | 0.00 | 0.00 | 1011.8 | |
| 20260504024058 | 56 | 0 | 0.0 | 0.0 | 0.00 | 0.00 | 0.00 | 1011.9 | |
| 20260504023557 | 57 | 211 | 0.0 | 1.0 | 0.00 | 0.00 | 0.00 | 1011.6 | |
| 20260504023055 | 57 | 181 | 0.0 | 1.0 | 0.00 | 0.00 | 0.00 | 1011.9 | |
| 20260504022554 | 57 | 0 | 0.0 | 0.0 | 0.00 | 0.00 | 0.00 | 1011.5 | |
| 20260504022054 | 57 | 269 | 0.0 | 2.0 | 0.00 | 0.00 | 0.00 | 1011.6 | |
| 20260504021553 | 57 | 267 | 0.0 | 1.0 | 0.00 | 0.00 | 0.00 | 1011.6 | |
| 20260504021053 | 57 | 193 | 1.0 | 4.0 | 0.00 | 0.00 | 0.00 | 1011.6 | |
| 20260504020553 | 57 | 0 | 0.0 | 0.0 | 0.00 | 0.00 | 0.00 | 1011.5 | |
| 20260504020052 | 57 | 208 | 0.0 | 1.0 | 0.00 | 0.00 | 0.00 | 1011.7 | |
| 20260504015552 | 57 | 187 | 0.0 | 4.0 | 0.00 | 0.00 | 0.00 | 1011.5 | |
| 20260504015052 | 57 | 194 | 0.0 | 5.0 | 0.00 | 0.00 | 0.00 | 1011.4 | |
| 20260504014550 | 57 | 203 | 0.0 | 1.0 | 0.00 | 0.00 | 0.00 | 1011.6 | |
| 20260504014050 | 57 | 221 | 0.0 | 1.0 | 0.00 | 0.00 | 0.00 | 1011.2 | |
| 20260504013550 | 57 | 219 | 0.0 | 2.0 | 0.00 | 0.00 | 0.00 | 1011.5 | |
| 20260504012548 | 57 | 233 | 0.0 | 1.0 | 0.00 | 0.00 | 0.00 | 1011.5 | |
| 20260504012048 | 57 | 232 | 0.0 | 1.0 | 0.00 | 0.00 | 0.00 | 1010.9 | |
| 20260504011547 | 57 | 0 | 0.0 | 0.0 | 0.00 | 0.00 | 0.00 | 1011.3 | |
| 20260504011047 | 57 | 204 | 0.0 | 2.0 | 0.00 | 0.00 | 0.00 | 1011.3 | |
| 20260504010546 | 57 | 0 | 0.0 | 0.0 | 0.00 | 0.00 | 0.00 | 1011.4 | |
| 20260504010045 | 57 | 195 | 0.0 | 1.0 | 0.00 | 0.00 | 0.00 | 1011.2 | |
| 20260504005044 | 57 | 0 | 0.0 | 0.0 | 0.00 | 0.00 | 0.00 | 1010.8 | |
| 20260504004544 | 56 | 172 | 0.0 | 3.0 | 0.00 | 0.00 | 0.00 | 1011.2 | |
| 20260504004043 | 58 | 0 | 0.0 | 0.0 | 0.00 | 0.00 | 0.00 | 1010.9 | |
| 20260504003543 | 58 | 198 | 1.0 | 6.0 | 0.00 | 0.00 | 0.00 | 1010.9 | |
| 20260504003043 | 58 | 210 | 0.0 | 4.0 | 0.00 | 0.00 | 0.00 | 1011.5 | |
| 20260504002542 | 58 | 191 | 0.0 | 3.0 | 0.00 | 0.00 | 0.00 | 1010.9 | |
| 20260504002041 | 58 | 212 | 0.0 | 3.0 | 0.00 | 0.00 | 0.00 | 1011.3 | |
| 20260504001541 | 59 | 0 | 0.0 | 0.0 | 0.00 | 0.00 | 0.00 | 1010.8 | |
| 20260504001039 | 59 | 250 | 0.0 | 5.0 | 0.00 | 0.00 | 0.00 | 1010.9 | |
| 20260503235537 | 59 | 181 | 0.0 | 7.0 | 0.00 | 0.00 | 0.00 | 1010.9 | |
| 20260503235036 | 60 | 0 | 0.0 | 0.0 | 0.00 | 0.00 | 0.00 | 1010.7 | |
| 20260503234536 | 60 | 225 | 1.0 | 6.0 | 0.00 | 0.00 | 0.00 | 1010.7 | |
| 20260503234035 | 60 | 226 | 1.0 | 5.0 | 0.00 | 0.00 | 0.00 | 1010.8 | |
| 20260503233535 | 61 | 187 | 1.0 | 4.0 | 0.00 | 0.00 | 0.00 | 1010.9 | |
| 20260503233035 | 61 | 187 | 0.0 | 2.0 | 0.00 | 0.00 | 0.00 | 1011.0 |